Location: Unspecified
(0.0000°N, 0.0000°E)
Time: 18:09:28
(UTC+00:00)

STARLINK 1053 - Pass Details

Date: 20 January 2020
Orbit: 549 x 551 km, 53.0° (Epoch: 23 January)

Event Time Altitude Azimuth Distance (km) Brightness Sun altitude
Rises 05:14:04 0° 205° (SSW) 2,729 7.1 -13.3°
Reaches altitude 10° 05:16:22 10° 199° (SSW) 1,831 6.3 -12.8°
Maximum altitude 05:20:23 48° 124° (SE) 725 4.7 -11.8°
Drops below altitude 10° 05:24:23 10° 49° (NE) 1,818 6.7 -10.9°
Sets 05:26:39 0° 44° (NE) 2,707 7.5 -10.3°
